Regional Weather Roundup
Issued by NWS

Home | Current Version | Previous Version | Graphics & Text | Print | Product List | Glossary On
Versions: 1 2 3 4 5 6 7 8 9 10 11 12 13 14 15 16 17 18 19 20 21 22 23 24 25 26 27 28 29 30 31 32 33 34 35 36 37 38 39 40 41 42 43 44 45 46 47 48 49 50
000
ASUS45 KCYS 211910
RWRWY

WYOMING REGIONAL WEATHER ROUNDUP
NATIONAL WEATHER SERVICE CHEYENNE WY
100 PM MDT SUN SEP 21 2014

NOTE:  "FAIR" INDICATES FEW OR NO CLOUDS BELOW 12,000 FEET
WITH NO SIGNIFICANT WEATHER AND/OR OBSTRUCTIONS TO VISIBILITY.

WYZ001-212000-
YELLOWSTONE NATIONAL PARK

CITY           SKY/WX    TMP DP  RH WIND       PRES   REMARKS
LK YELLOWSTONE   N/A     64  39  39 E5        30.40F
W YELLOWSTONE  NOT AVBL

$$
WYZ002>013-054>058-071-098>099-212000-
NORTHERN WYOMING

CITY           SKY/WX    TMP DP  RH WIND       PRES   REMARKS
JACKSON        SUNNY     70  41  35 CALM      30.31F
CODY             N/A    N/A N/A N/A MISG        N/A
GREYBULL       SUNNY     75  41  29 VRB5      30.24F
WORLAND        SUNNY     73  41  31 NE6       30.25F
SHERIDAN       SUNNY     76  40  27 SE17      30.25F
BUFFALO        SUNNY     72  38  29 SE21G26   30.31F
GILLETTE       SUNNY     72  38  29 S9G17     30.31F
HULETT         FAIR      72  36  26 MISG      30.34
NEWCASTLE      FAIR      68  32  26 SE6       30.36

$$
WYZ014>020-022>026-101>103-212000-
CENTRAL WYOMING

CITY           SKY/WX    TMP DP  RH WIND       PRES   REMARKS
BIG PINEY      PTSUNNY   64  40  41 NW5       30.37F
PINEDALE       MOCLDY    64  36  34 SE7       30.37F
DUBOIS         FAIR      61  34  36 SE7       30.39F
LANDER         PTSUNNY   68  38  33 N6        30.30F
RIVERTON       PTSUNNY   66  39  37 E8        30.32F
CASPER         SUNNY     72  37  28 SE5       30.31F
DOUGLAS        SUNNY     72  40  31 SE20      30.33F

$$
WYZ021-027>030-104>119-212000-
SOUTHERN WYOMING

CITY           SKY/WX    TMP DP  RH WIND       PRES   REMARKS
EVANSTON       LGT RAIN  50  46  86 E10       30.35F
KEMMERER       LGT RAIN  59  39  47 SE6       30.37F
FORT BRIDGER   CLOUDY    54  46  75 S5        30.40R
ROCK SPRINGS   CLOUDY    63  38  39 E8        30.34F
DIXON          CLOUDY    67  49  53 S17       30.40S
RAWLINS        PTSUNNY   68  40  35 W5        30.36F
SARATOGA       FAIR      73  43  33 W17G23    30.37S
LARAMIE        SUNNY     69  43  38 SE20      30.37F
CHEYENNE       SUNNY     67  41  38 S17G26    30.38F
TORRINGTON     MOSUNNY   71  40  32 SE12      30.33F
PINE BLUFFS    FAIR      70  39  32 SE15G26   30.36F

$$


USA.gov is the U.S. government's official web portal to all federal, state and local government web resources and services.